[[{"header":{"parameterUnit":"m.s-1","parameterCategory":1,"la1":30.2991,"la2":30.254,"lo1":-89.0895,"lo2":-89.0444,"dy":0.0017,"dx":0.0017,"nx":28,"ny":28,"refTime":"2024-12-24T03:00:00:Z","depth":0,"parameterNumber":2,"parameterNumberName":"U-component_of_WINDS"},"data":[0,0,0,0,0,0,0,0,0,0,0,0,0,0,0,0,0,0,0,0,0,0,0,0,0,0,0,0,0,0,0,0,0,0,0,0,0,0,0,0,0,0,0,0,0,0,0,0,0,0,0,0,0,0,0,0,0,0,-3.3727,-3.3727,0,-3.3719,-3.3719,-3.3719,-3.3614,-3.3611,-3.3608,-3.3606,-3.36,-3.3602,-3.3604,0,0,0,0,0,0,0,0,0,0,0,0,0,-3.3656,-3.3658,-3.3727,-3.3727,-3.3727,-3.3719,-3.3719,-3.3719,-3.3614,-3.3611,-3.3608,-3.3605,-3.3599,-3.3602,-3.3604,0,0,0,0,0,0,0,0,0,0,0,0,0,-3.3671,-3.3658,-3.3727,-3.3674,-3.3669,-3.3719,-3.3719,-3.3719,-3.3615,-3.3611,-3.3607,-3.3603,-3.3598,-3.3601,-3.3605,-3.3706,0,0,-3.3615,-3.3617,0,0,0,0,0,0,0,0,-3.3671,-3.3674,-3.3682,-3.3678,-3.3672,-3.3663,-3.3691,-3.3715,-3.3616,-3.3635,-3.3606,-3.3601,-3.3624,-3.3625,-3.3632,-3.3706,-3.3706,-3.3616,-3.3618,-3.3619,-3.362,0,0,0,0,0,0,0,-3.367,-3.3674,-3.3724,-3.3682,-3.3676,-3.3651,-3.3649,-3.3695,-3.3652,-3.3633,-3.3626,-3.3626,-3.3621,-3.3629,-3.3632,-3.3706,-3.3616,-3.3619,-3.3621,-3.3622,-3.3866,-3.387,0,0,0,0,0,0,-3.3676,-3.3674,-3.3724,-3.3724,-3.3661,-3.3656,-3.3653,-3.367,-3.3652,-3.3645,-3.3629,-3.3621,-3.3625,-3.3628,-3.3631,-3.3751,-3.3619,-3.3623,-3.3625,-3.3861,-3.3867,-3.3871,0,0,0,0,0,0,-3.3675,-3.3681,-3.3725,-3.3697,-3.37,-3.3661,-3.3681,-3.3672,-3.3681,-3.3649,-3.3641,-3.3646,-3.3622,-3.3626,-3.3689,-3.375,-3.3624,-3.3627,-3.3856,-3.3863,-3.3869,-3.3992,0,0,0,0,0,0,-3.3673,-3.3681,-3.3719,-3.3698,-3.3702,-3.3782,-3.3685,-3.3675,-3.3687,-3.3676,-3.3662,-3.3656,-3.3619,-3.3684,-3.3693,-3.3752,-3.363,-3.3851,-3.3859,-3.3867,-3.3982,-3.4002,-3.4018,0,0,0,0,0,-3.3671,-3.3753,-3.3721,-3.3728,-3.3748,-3.3786,-3.3788,-3.3744,-3.3692,-3.373,-3.371,-3.3656,-3.3741,-3.3692,-3.37,-3.3762,-3.3847,-3.3857,-3.3866,-3.3974,-3.3998,-3.4018,0,0,0,0,0,0,-3.3782,-3.3749,-3.3713,-3.3791,-3.3792,-3.3768,-3.3814,-3.377,-3.3786,-3.3775,-3.372,-3.3718,-3.379,-3.3781,-3.3727,-3.3861,-3.3785,-3.3797,-3.3864,-3.3886,-3.3904,-3.3906,-3.3633,0,0,0,0,0,-3.3815,-3.3848,-3.3818,-3.389,-3.3892,-3.3854,-3.3868,-3.3834,-3.3833,-3.3833,-3.3817,-3.3819,-3.3846,-3.3865,-3.3888,-3.398,-3.3977,-3.4026,-3.4044,-3.4059,-3.4071,-3.4122,-3.4145,-3.3904,-3.3904,-3.3904,0,0,-3.3885,-3.3871,-3.3895,-3.3912,-3.3908,-3.3945,-3.3854,-3.3896,-3.3924,-3.3839,-3.3899,-3.3887,-3.3886,-3.3965,-3.3998,-3.396,-3.4137,-3.4072,-3.4084,-3.4088,-3.4135,-3.4158,-3.4178,-3.391,-3.3909,-3.3908,0,0,-3.4031,-3.4023,-3.4083,-3.4082,-3.4078,-3.4052,-3.4067,-3.405,-3.4039,-3.4098,-3.4036,-3.4068,-3.4115,-3.4118,-3.4125,-3.4275,-3.4228,-3.4284,-3.438,-3.443,-3.4449,-3.4466,-3.4523,-3.4543,-3.4296,-3.4296,-3.4296,0,-3.4118,-3.417,-3.412,-3.4167,-3.4178,-3.4103,-3.4165,-3.4166,-3.4171,-3.4181,-3.4137,-3.4197,-3.419,-3.427,-3.4307,-3.4314,-3.4331,-3.4286,-3.445,-3.4467,-3.4482,-3.4535,-3.4556,-3.4303,-3.4302,-3.4301,-3.4301,0,-3.4279,-3.4317,-3.4366,-3.4373,-3.4388,-3.4443,-3.4403,-3.4425,-3.439,-3.437,-3.4432,-3.4421,-3.4442,-3.4458,-3.4424,-3.4534,-3.4511,-3.446,-3.4383,-3.4513,-3.4562,-3.4582,-3.4313,-3.4311,-3.4308,-3.4307,0,0,-3.4495,-3.4475,-3.4494,-3.4497,-3.4488,-3.4517,-3.4569,-3.4589,-3.4611,-3.4617,-3.4661,-3.4704,-3.4657,-3.4666,-3.4631,-3.4675,-3.4799,-3.4619,-3.4618,-3.4656,-3.4924,-3.4965,-3.4989,-3.4767,-3.477,-3.4773,-3.4925,0,-3.4639,-3.4726,-3.4683,-3.4776,-3.4812,-3.4743,-3.4788,-3.4789,-3.4772,-3.48,-3.4781,-3.4814,-3.4748,-3.4753,-3.4793,-3.4776,-3.4853,-3.4764,-3.481,-3.4812,-3.4815,-3.5014,-3.5056,-3.52,-3.4944,-3.4947,-3.4949,0,-3.4817,-3.4832,-3.4929,-3.4916,-3.4929,-3.4971,-3.4988,-3.5015,-3.5016,-3.5,-3.5011,-3.4967,-3.502,-3.4942,-3.5015,-3.4956,-3.4972,-3.4967,-3.4971,-3.4976,-3.489,-3.5027,-3.5244,-3.5267,-3.4978,-3.4976,-3.4974,0,-3.4969,-3.5012,-3.5077,-3.5081,-3.5067,-3.5099,-3.5095,-3.5091,-3.5107,-3.5122,-3.5132,-3.5153,-3.5166,-3.5184,-3.5148,-3.5094,-3.5227,-3.5146,-3.5218,-3.522,-3.5251,-3.525,-3.5477,-3.5257,-3.5257,-3.5257,-3.5256,0,-3.5135,-3.5198,-3.5145,-3.5185,-3.5254,-3.5205,-3.5276,-3.5264,-3.5262,-3.5299,-3.524,-3.5277,-3.5226,-3.5259,-3.5231,-3.5298,-3.5303,-3.5294,-3.5286,-3.5301,-3.5303,-3.5312,-3.5303,-3.5262,-3.5261,-3.526,-3.5259,0,-3.5317,-3.5283,-3.535,-3.5332,-3.5329,-3.5381,-3.5366,-3.5403,-3.5382,-3.5431,-3.544,-3.5407,-3.5443,-3.5408,-3.5442,-3.5423,-3.5514,-3.549,-3.5514,-3.5508,-3.5584,-3.5579,-3.5828,-3.5859,-3.5617,-3.5619,-3.5621,0,-3.5426,-3.5473,-3.5461,-3.5482,-3.5481,-3.5516,-3.5532,-3.5486,-3.5506,-3.5512,-3.5549,-3.558,-3.5602,-3.5663,-3.5643,-3.567,-3.5648,-3.5734,-3.5652,-3.5666,-3.5653,-3.5652,-3.5658,-3.5751,-3.5754,-3.5756,-3.5758,0,-3.5625,-3.5607,-3.5633,-3.5654,-3.5675,-3.569,-3.5699,-3.572,-3.5673,-3.5699,-3.5735,-3.5753,-3.5788,-3.582,-3.5841,-3.5837,-3.5792,-3.5784,-3.5803,-3.5819,-3.5833,-3.583,-3.5562,-3.5779,-3.5777,-3.5775,-3.5774,-3.5773,-3.5776,-3.5816,-3.5814,-3.5846,-3.5848,-3.586,-3.5895,-3.5878,-3.5907,-3.5932,-3.5904,-3.5949,-3.595,-3.5973,-3.5976,-3.6012,-3.5976,-3.6002,-3.6009,-3.6018,-3.603,-3.5825,-3.6015,-3.6014,-3.6014,-3.6013,-3.6013,0,-3.5975,-3.597,-3.6,-3.6016,-3.6042,-3.5995,-3.6004,-3.6029,-3.607,-3.6074,-3.6098,-3.6141,-3.6173,-3.6156,-3.6184,-3.6217,-3.6197,-3.6226,-3.6224,-3.6225,-3.6059,-3.6041,-3.6242,-3.6242,-3.6242,-3.6242,-3.6242,-3.6242,-3.6081,-3.6147,-3.6129,-3.6197,-3.6192,-3.6236,-3.6245,-3.6257,-3.6261,-3.6311,-3.6337,-3.6326,-3.6323,-3.6351,-3.6379,-3.6374,-3.6388,-3.6426,-3.6413,-3.6259,-3.6236,-3.6215,-3.6198,-3.6429,-3.6429,-3.6577,-3.6578,-3.6579]},{"header":{"parameterUnit":"m.s-1","parameterCategory":1,"la1":30.2991,"la2":30.254,"lo1":-89.0895,"lo2":-89.0444,"dy":0.0017,"dx":0.0017,"nx":28,"ny":28,"refTime":"2024-12-24T03:00:00:Z","depth":0,"parameterNumber":3,"parameterNumberName":"V-component_of_WINDS"},"data":[0,0,0,0,0,0,0,0,0,0,0,0,0,0,0,0,0,0,0,0,0,0,0,0,0,0,0,0,0,0,0,0,0,0,0,0,0,0,0,0,0,0,0,0,0,0,0,0,0,0,0,0,0,0,0,0,0,0,-0.9001,-0.9001,0,-0.9032,-0.9033,-0.9033,-0.9001,-0.9,-0.8999,-0.8997,-0.9031,-0.9033,-0.9035,0,0,0,0,0,0,0,0,0,0,0,0,0,-0.8911,-0.8913,-0.9,-0.9001,-0.9001,-0.9032,-0.9033,-0.9033,-0.9001,-0.9,-0.8998,-0.8997,-0.903,-0.9033,-0.9035,0,0,0,0,0,0,0,0,0,0,0,0,0,-0.8947,-0.8913,-0.9,-0.8989,-0.8988,-0.9032,-0.9033,-0.9033,-0.9002,-0.9,-0.8998,-0.8996,-0.9029,-0.9032,-0.9035,-0.9092,0,0,-0.9045,-0.9046,0,0,0,0,0,0,0,0,-0.8945,-0.8951,-0.899,-0.899,-0.8989,-0.9011,-0.9014,-0.9053,-0.9002,-0.8997,-0.8997,-0.8995,-0.9026,-0.9029,-0.9039,-0.9094,-0.9095,-0.9045,-0.9047,-0.9048,-0.9049,0,0,0,0,0,0,0,-0.8943,-0.8949,-0.9013,-0.8991,-0.899,-0.8982,-0.8985,-0.9021,-0.9021,-0.8997,-0.8995,-0.8999,-0.9025,-0.9036,-0.904,-0.9096,-0.9045,-0.9048,-0.905,-0.9051,-0.9199,-0.9201,0,0,0,0,0,0,-0.8941,-0.8947,-0.9012,-0.9014,-0.8962,-0.8985,-0.8989,-0.9006,-0.9021,-0.9021,-0.9,-0.8997,-0.9032,-0.9036,-0.9041,-0.9109,-0.9048,-0.9051,-0.9053,-0.9197,-0.9199,-0.9201,0,0,0,0,0,0,-0.894,-0.8948,-0.9011,-0.898,-0.8987,-0.8989,-0.9008,-0.9007,-0.9019,-0.9024,-0.9023,-0.9012,-0.9031,-0.9036,-0.908,-0.911,-0.9053,-0.9055,-0.9194,-0.9197,-0.92,-0.9246,0,0,0,0,0,0,-0.8937,-0.8947,-0.8969,-0.8981,-0.8989,-0.905,-0.901,-0.9009,-0.9024,-0.902,-0.9034,-0.9035,-0.903,-0.9075,-0.9083,-0.9113,-0.9058,-0.9192,-0.9196,-0.9199,-0.9242,-0.925,-0.9257,0,0,0,0,0,-0.8934,-0.8981,-0.8971,-0.8979,-0.9017,-0.9051,-0.9056,-0.9049,-0.9027,-0.9049,-0.9051,-0.9034,-0.9105,-0.908,-0.9088,-0.912,-0.919,-0.9195,-0.9199,-0.9238,-0.9249,-0.9257,0,0,0,0,0,0,-0.8974,-0.8982,-0.8971,-0.9023,-0.9037,-0.9046,-0.9074,-0.906,-0.9081,-0.9077,-0.9066,-0.907,-0.9116,-0.9122,-0.9094,-0.9175,-0.9144,-0.915,-0.9171,-0.918,-0.9188,-0.9187,-0.906,0,0,0,0,0,-0.8988,-0.9016,-0.9022,-0.9067,-0.9074,-0.9073,-0.9088,-0.9081,-0.9095,-0.91,-0.9107,-0.9121,-0.9146,-0.9163,-0.9187,-0.9241,-0.9244,-0.9267,-0.9275,-0.9281,-0.9288,-0.9317,-0.9328,-0.9217,-0.9217,-0.9217,0,0,-0.9019,-0.9027,-0.9045,-0.9075,-0.9085,-0.9114,-0.9078,-0.911,-0.9131,-0.9105,-0.9147,-0.9152,-0.9167,-0.9216,-0.9238,-0.9223,-0.9318,-0.9287,-0.9292,-0.9295,-0.9323,-0.9334,-0.9343,-0.922,-0.9219,-0.9219,0,0,-0.909,-0.9099,-0.9137,-0.9148,-0.9163,-0.9161,-0.917,-0.9181,-0.9184,-0.9225,-0.9206,-0.923,-0.9274,-0.9286,-0.9298,-0.9371,-0.9356,-0.9379,-0.942,-0.9449,-0.9458,-0.9466,-0.9493,-0.9503,-0.9385,-0.9385,-0.9385,0,-0.9127,-0.917,-0.9159,-0.9192,-0.9206,-0.9183,-0.9222,-0.9232,-0.9254,-0.9264,-0.9246,-0.93,-0.9308,-0.936,-0.9378,-0.9388,-0.9398,-0.9378,-0.9458,-0.9465,-0.9472,-0.9498,-0.9508,-0.9387,-0.9387,-0.9387,-0.9387,0,-0.9214,-0.9244,-0.9273,-0.9295,-0.9311,-0.9347,-0.9342,-0.936,-0.9351,-0.9351,-0.9393,-0.9402,-0.9427,-0.9438,-0.943,-0.9489,-0.9479,-0.9459,-0.9427,-0.9486,-0.951,-0.952,-0.9391,-0.939,-0.939,-0.9389,0,0,-0.9314,-0.9328,-0.9339,-0.9348,-0.9362,-0.9385,-0.9419,-0.9443,-0.9459,-0.9474,-0.9503,-0.954,-0.9521,-0.9535,-0.9527,-0.9552,-0.9611,-0.9529,-0.9529,-0.9545,-0.9677,-0.9693,-0.9705,-0.96,-0.9601,-0.9603,-0.9676,0,-0.9386,-0.9447,-0.9437,-0.9496,-0.9523,-0.95,-0.953,-0.9542,-0.9542,-0.9565,-0.9565,-0.9592,-0.9565,-0.9573,-0.9596,-0.9599,-0.9637,-0.9593,-0.9628,-0.9629,-0.9627,-0.9717,-0.9735,-0.9804,-0.9685,-0.9687,-0.9688,0,-0.948,-0.9499,-0.9559,-0.9568,-0.9579,-0.9607,-0.9628,-0.9649,-0.9662,-0.966,-0.9674,-0.9661,-0.9696,-0.9661,-0.9708,-0.9678,-0.9691,-0.9694,-0.9697,-0.9702,-0.9664,-0.9726,-0.9825,-0.9837,-0.9703,-0.9702,-0.97,0,-0.9548,-0.9588,-0.963,-0.9638,-0.9649,-0.9669,-0.9675,-0.9685,-0.97,-0.9717,-0.9727,-0.9748,-0.976,-0.9777,-0.977,-0.9746,-0.9819,-0.9784,-0.982,-0.982,-0.9838,-0.9838,-0.9943,-0.9843,-0.9843,-0.9843,-0.9843,0,-0.9632,-0.967,-0.966,-0.9686,-0.9729,-0.9717,-0.9759,-0.9761,-0.977,-0.9796,-0.9777,-0.9801,-0.979,-0.9814,-0.9808,-0.9848,-0.9854,-0.9854,-0.9852,-0.9857,-0.9857,-0.9867,-0.9863,-0.9846,-0.9845,-0.9845,-0.9844,0,-0.9717,-0.9711,-0.9755,-0.9762,-0.9764,-0.9795,-0.98,-0.9824,-0.9822,-0.9855,-0.9862,-0.9859,-0.9886,-0.988,-0.991,-0.9906,-0.9957,-0.9948,-0.9953,-0.9952,-0.9988,-0.9986,-1.0106,-1.0121,-1.001,-1.0011,-1.0012,0,-0.9771,-0.98,-0.981,-0.9825,-0.9832,-0.9858,-0.9872,-0.9861,-0.9877,-0.9892,-0.9915,-0.9939,-0.9959,-1.0003,-1.0003,-1.0026,-1.0019,-1.0059,-1.0022,-1.0026,-1.0021,-1.002,-1.0024,-1.0067,-1.0068,-1.0069,-1.007,0,-0.987,-0.9865,-0.9887,-0.9908,-0.9925,-0.9941,-0.9955,-0.9969,-0.9959,-0.9977,-1.0004,-1.0019,-1.0049,-1.0074,-1.0094,-1.01,-1.0084,-1.0081,-1.0091,-1.0097,-1.0099,-1.01,-0.9975,-1.0079,-1.0078,-1.0078,-1.0077,-1.0077,-0.9942,-0.9967,-0.9977,-1.0002,-1.0011,-1.0024,-1.0047,-1.0047,-1.0069,-1.0092,-1.0084,-1.0115,-1.0125,-1.015,-1.0158,-1.0182,-1.0167,-1.0181,-1.0185,-1.0189,-1.0194,-1.0093,-1.0185,-1.0185,-1.0185,-1.0185,-1.0184,0,-1.0041,-1.0045,-1.0068,-1.0088,-1.0107,-1.0089,-1.0103,-1.012,-1.0148,-1.0159,-1.0178,-1.0209,-1.0232,-1.0234,-1.0256,-1.0275,-1.0268,-1.0282,-1.0281,-1.0283,-1.0205,-1.0196,-1.0287,-1.0287,-1.0287,-1.0287,-1.0287,-1.0287,-1.0094,-1.0135,-1.0132,-1.0177,-1.0181,-1.0211,-1.0221,-1.0233,-1.0241,-1.0276,-1.0296,-1.0296,-1.0304,-1.0326,-1.0347,-1.0347,-1.0357,-1.0373,-1.037,-1.0298,-1.0288,-1.0279,-1.0269,-1.0375,-1.0375,-1.0446,-1.0447,-1.0447]}]]